Regional Weather Roundup
Issued by NWS

Home | Current Version | Previous Version | Text Only | Print | Product List | Glossary Off
Versions: 1 2 3 4 5 6 7 8 9 10 11 12 13 14 15 16 17 18 19 20 21 22 23 24 25 26 27 28 29 30 31 32 33 34 35 36 37 38 39 40 41 42 43 44 45 46 47 48 49 50

000
ASUS43 KLMK 290702
RWRKY
KENTUCKY REGIONAL WEATHER ROUNDUP
NATIONAL WEATHER SERVICE LOUISVILLE KY
300 AM EDT SAT AUG 29 2015

NOTE "FAIR" INDICATES FEW OR NO CLOUDS BELOW 12,000 FEET
WITH NO SIGNIFICANT WEATHER AND/OR OBSTRUCTIONS TO VISIBILITY.

KYZ001>023-026-027-061>063-070>075-290800-
WESTERN AND SOUTH CENTRAL KENTUCKY

CITY           SKY/WX    TMP DP  RH WIND       PRES   REMARKS
PADUCAH        CLOUDY    71  65  81 S5        30.03S
HENDERSON      PTCLDY    68  63  83 CALM      30.04S
OWENSBORO      CLEAR     68  65  90 SE3       30.06F
HOPKINSVILLE   CLEAR     71  65  82 SE5       30.06F
BOWLING GREEN  PTCLDY    65  63  93 CALM      30.09S
GLASGOW        CLEAR     69  63  82 CALM      30.11S
$$

KYZ024-025-028>034-038-045-046-053-290800-
NORTH CENTRAL KENTUCKY

CITY           SKY/WX    TMP DP  RH WIND       PRES   REMARKS
LOUISVILLE/SDF PTCLDY    70  62  76 SE3       30.08F
LOUISVILLE/LOU PTCLDY    71  61  70 CALM      30.09F
FORT KNOX      CLEAR     65  62  89 E1        30.08F
$$

KYZ035>037-039>044-047>052-055>060-089>105-290800-
NORTHEAST KENTUCKY

CITY           SKY/WX    TMP DP  RH WIND       PRES   REMARKS
LEXINGTON      CLEAR     69  61  75 SE6       30.13F
COVINGTON      CLEAR     67  58  72 SE3       30.11F
FRANKFORT      CLEAR     64  60  87 CALM      30.11F
$$

KYZ054-064>069-076>088-106>120-290800-
SOUTHEAST KENTUCKY

CITY           SKY/WX    TMP DP  RH WIND       PRES   REMARKS
JACKSON        CLEAR     68  62  81 E3        30.16F
LONDON         MOCLDY    67  61  81 CALM      30.15S
SOMERSET       PTCLDY    63  63 100 CALM      30.15S FOG
MIDDLESBORO    PTCLDY    61  61  99 CALM      30.17F
MONTICELLO     SUNNY     61  61 100 CALM      30.17S
$$



USA.gov is the U.S. government's official web portal to all federal, state and local government web resources and services.